CYGNUS NG-12

Last updated on Wed Mar 18 2020 00:02:11 GMT+0000 (Coordinated Universal Time)

1 44701U 19071A 20077.56678873 .00007476 00000-0 23121-3 0 9996 2 44701 51.6150 86.8544 0012070 51.7843 96.0017 15.34457436 21018

Satellite not in orbit

CYGNUS NG-12